weather.gov     
National Weather Service

Regional Weather Roundup
NWS Homepage
This page is being discontinued on March 12, 2014.
The same data is available at this site. Please update your bookmarks.
Thank you, and we apologize for the inconvenience.
Please send an email to SR-SRH.Webmaster@noaa.gov with any concerns.


Current Version
Previous Version:    01  02  03  04  05  06  07  08  09  10  11  12  13  14  15  16  17  18  19  20  21  22  23  24  25  26  27  28  29  30  
   31  32  33  34  35  36  37  38  39  40  41  42  43  44  45  46  47  48  49  50  51  52  53  54  55  56  57  58  59  60  
[Printable]
069
ASCA44 KEWX 280820
RWRMX

LATIN AMERICA AND CARIBBEAN REGIONAL WEATHER ROUNDUP
NATIONAL WEATHER SERVICE AUSTIN/SAN ANTONIO TX
300 AM CDT MON JUL 28 2014

NOTE: "FAIR" INDICATED FEW OR NO CLOUDS BELOW 12,000 FEET WITH NO
SIGNIFICANT WEATHER AND/OR OBSTRUCTIONS TO VISIBILITY.

BAJA CALIFORNIA

CITY           SKY/WX    TMP DP  RH WIND       PRES   REMARKS
TIJUANA        PTCLDY    70  63  78 NW6       30.05S

NORTHWESTERN MEXICO

CITY           SKY/WX    TMP DP  RH WIND       PRES   REMARKS
DURANGO        CLEAR     66  54  63 S9        30.32

NORTHEASTERN MEXICO

CITY           SKY/WX    TMP DP  RH WIND       PRES   REMARKS
CHIHUAHUA      MOCLDY    73  55  53 SW9       30.23F
MONTERREY      CLEAR     77  68  73 E9        30.00F
REYNOSA        PTCLDY    77  72  83 E7        30.02S
CD. VICTORIA   CLEAR     79  72  78 S9        30.04F

WESTERN MEXICO

CITY           SKY/WX    TMP DP  RH WIND       PRES   REMARKS
GUADALAJARA    MOCLDY    64  59  82 N2        30.24F
MAZATLAN       CLOUDY    73  68  83 N9        29.98F
P. VALLARTA    CLOUDY    75  72  88 N6        29.98F
ZACATECAS      CLEAR     57  43  58 SW7       30.39F

CENTRAL MEXICO

CITY           SKY/WX    TMP DP  RH WIND       PRES   REMARKS
MEXICO CITY    MOCLDY    61  52  72 NW10      30.42F
QUERETARO      CLEAR     59  55  88 NE69      30.40S
S. LUIS POTOSI CLEAR     59  55  88 CALM      30.36F
TOLUCA         MOCLDY    50  46  87 E3        30.49F

SOUTHERN MEXICO

CITY           SKY/WX    TMP DP  RH WIND       PRES   REMARKS
ACAPULCO       CLOUDY    79  70  73 NE7       29.98S

YUCATAN PENINSULA

CITY           SKY/WX    TMP DP  RH WIND       PRES   REMARKS
CANCUN         CLEAR     81  77  89 CALM      30.04F
COZUMEL        CLEAR     75  75 100 CALM      30.03F
MERIDA         PTCLDY    77  73  88 E7        30.04F
TAPACHULA      MOCLDY    77  77 100 CALM      29.92F
TUX. GUTIERREZ CLOUDY    72  70  94 CALM      30.03F

CENTRAL AMERICA

CITY           SKY/WX    TMP DP  RH WIND       PRES   REMARKS

CARIBBEAN

CITY           SKY/WX    TMP DP  RH WIND       PRES   REMARKS
ARUBA          PTCLDY    81  77  89 E15       29.94F
KINGSTON       PTCLDY    82  73  74 NW6       29.97S
NASSAU         PTCLDY    82  73  74 S3        30.06F
SAN JUAN       PTCLDY    81  75  83 CALM      30.07F
SANTO DOMINGO  PTCLDY    77  72  83 NE6       30.03S
ST. CROIX      CLEAR     77  72  83 N6        30.07S
ST. MAARTEN    PTCLDY    81  73  78 E8        30.06S
ST. THOMAS     CLEAR     81  75  83 E3        30.06F

$$





U.S. Dept. of Commerce
NOAA National Weather Service
1325 East West Highway
Silver Spring, MD 20910
E-mail: w-nws.webmaster@noaa.gov
Page last modified: May 16, 2007
NATIONAL WEATHER SERVICE: for Safety, for Work, for Fun - FOR LIFE